• In Slovakia
  • List of Countries
  • For 7 days
  • Water Temperature
  • Satellite Maps
  • Weather Map
  • Weather Widgets
  • user-avatar
    Login

    Hourly Weather Canberra

    Today, 17 January, Wednesday

    Time Temperature Precipitation Wind Pressure Humidity
    00:00 +12°C° 0 mm 2 mps 711 mmHg 81%
    01:00 +10°C° 0 mm 2 mps 711 mmHg 85%
    02:00 +10°C° 0 mm 2 mps 711 mmHg 83%
    03:00 +10°C° 0 mm 2 mps 711 mmHg 81%
    04:00 +10°C° 0 mm 1 mps 710 mmHg 82%
    05:00 +12°C° 0 mm 1 mps 711 mmHg 72%
    06:00 +13°C° 0 mm 1 mps 711 mmHg 61%
    07:00 +15°C° 0 mm 2 mps 712 mmHg 51%
    08:00 +18°C° 0 mm 2 mps 712 mmHg 40%
    09:00 +21°C° 0 mm 2 mps 712 mmHg 29%
    10:00 +25°C° 0 mm 2 mps 713 mmHg 19%
    11:00 +27°C° 0 mm 2 mps 713 mmHg 17%
    12:00 +29°C° 0 mm 1 mps 713 mmHg 15%
    13:00 +31°C° 0 mm 1 mps 713 mmHg 14%
    14:00 +31°C° 0 mm 1 mps 712 mmHg 15%
    15:00 +30°C° 0 mm 2 mps 712 mmHg 16%
    16:00 +29°C° 0 mm 2 mps 711 mmHg 18%
    17:00 +27°C° 0 mm 2 mps 711 mmHg 26%
    18:00 +25°C° 0 mm 2 mps 711 mmHg 34%
    19:00 +23°C° 0 mm 2 mps 711 mmHg 42%
    20:00 +19°C° 0 mm 2 mps 711 mmHg 51%
    21:00 +18°C° 0 mm 1 mps 711 mmHg 61%
    22:00 +15°C° 0 mm 1 mps 712 mmHg 70%
    23:00 +15°C° 0 mm 1 mps 711 mmHg 73%

    Tomorrow, 18 January, Thursday

    Time Temperature Precipitation Wind Pressure Humidity
    00:00 +14°C° 0 mm 1 mps 711 mmHg 76%
    01:00 +13°C° 0 mm 1 mps 711 mmHg 79%
    02:00 +13°C° 0 mm 1 mps 711 mmHg 78%
    03:00 +13°C° 0 mm 1 mps 711 mmHg 78%
    04:00 +13°C° 0 mm 1 mps 711 mmHg 77%
    05:00 +15°C° 0 mm 1 mps 712 mmHg 68%
    06:00 +18°C° 0 mm 1 mps 712 mmHg 60%
    07:00 +18°C° 0 mm 0 mps 713 mmHg 51%
    08:00 +24°C° 0 mm 1 mps 713 mmHg 42%
    09:00 +27°C° 0 mm 1 mps 713 mmHg 32%
    10:00 +31°C° 0 mm 2 mps 713 mmHg 23%
    11:00 +34°C° 0 mm 2 mps 713 mmHg 20%
    12:00 +35°C° 0 mm 2 mps 713 mmHg 18%
    13:00 +37°C° 0 mm 2 mps 712 mmHg 15%
    14:00 +37°C° 0 mm 2 mps 712 mmHg 15%
    15:00 +37°C° 0 mm 2 mps 711 mmHg 16%
    16:00 +36°C° 0 mm 2 mps 711 mmHg 16%
    17:00 +34°C° 0 mm 2 mps 711 mmHg 23%
    18:00 +30°C° 0 mm 2 mps 710 mmHg 30%
    19:00 +27°C° 0 mm 2 mps 710 mmHg 37%
    20:00 +25°C° 0 mm 2 mps 710 mmHg 45%
    21:00 +23°C° 0 mm 1 mps 711 mmHg 54%
    22:00 +20°C° 0 mm 1 mps 711 mmHg 62%
    23:00 +20°C° 0 mm 1 mps 711 mmHg 63%

    Day after tomorrow, 19 January, Friday

    Time Temperature Precipitation Wind Pressure Humidity
    00:00 +19°C° 0 mm 1 mps 710 mmHg 63%
    01:00 +19°C° 0 mm 1 mps 710 mmHg 64%
    02:00 +19°C° 0 mm 1 mps 710 mmHg 62%
    03:00 +19°C° 0 mm 1 mps 710 mmHg 60%
    04:00 +18°C° 0 mm 1 mps 710 mmHg 58%
    05:00 +20°C° 0 mm 1 mps 710 mmHg 53%
    06:00 +22°C° 0 mm 1 mps 710 mmHg 48%
    07:00 +24°C° 0 mm 1 mps 711 mmHg 42%
    08:00 +28°C° 0 mm 1 mps 711 mmHg 34%
    09:00 +32°C° 0 mm 1 mps 711 mmHg 26%
    10:00 +35°C° 0 mm 1 mps 712 mmHg 18%
    11:00 +37°C° 0 mm 1 mps 711 mmHg 16%
    12:00 +40°C° 0 mm 1 mps 711 mmHg 14%
    13:00 +41°C° 0 mm 1 mps 711 mmHg 12%
    14:00 +41°C° 0 mm 1 mps 710 mmHg 12%
    15:00 +40°C° 0 mm 2 mps 710 mmHg 12%
    16:00 +40°C° 0 mm 2 mps 709 mmHg 13%
    17:00 +37°C° 0 mm 2 mps 709 mmHg 17%
    18:00 +34°C° 0 mm 2 mps 709 mmHg 21%
    19:00 +31°C° 0 mm 2 mps 709 mmHg 25%
    20:00 +28°C° 0 mm 2 mps 709 mmHg 27%
    21:00 +26°C° 0 mm 1 mps 709 mmHg 29%
    22:00 +24°C° 0 mm 1 mps 710 mmHg 32%
    23:00 +23°C° 0 mm 1 mps 709 mmHg 31%

    20 January, Saturday

    Time Temperature Precipitation Wind Pressure Humidity
    00:00 +23°C° 0 mm 1 mps 709 mmHg 31%
    01:00 +22°C° 0 mm 1 mps 709 mmHg 30%
    02:00 +22°C° 0 mm 1 mps 709 mmHg 30%
    03:00 +22°C° 0 mm 1 mps 709 mmHg 29%
    04:00 +22°C° 0 mm 1 mps 708 mmHg 29%
    05:00 +23°C° 0 mm 1 mps 709 mmHg 28%
    06:00 +25°C° 0 mm 1 mps 710 mmHg 27%
    07:00 +27°C° 0 mm 1 mps 710 mmHg 26%
    08:00 +30°C° 0 mm 1 mps 710 mmHg 21%
    09:00 +33°C° 0 mm 1 mps 711 mmHg 17%
    10:00 +37°C° 0 mm 1 mps 711 mmHg 13%
    11:00 +39°C° 0 mm 1 mps 710 mmHg 12%
    12:00 +40°C° 0 mm 1 mps 710 mmHg 11%
    13:00 +42°C° 0 mm 1 mps 710 mmHg 10%
    14:00 +41°C° 0 mm 2 mps 709 mmHg 10%
    15:00 +40°C° 0 mm 2 mps 709 mmHg 11%
    16:00 +40°C° 0 mm 3 mps 708 mmHg 11%
    17:00 +37°C° 0 mm 3 mps 708 mmHg 15%
    18:00 +35°C° 0 mm 3 mps 708 mmHg 18%
    19:00 +31°C° 0 mm 3 mps 708 mmHg 22%
    20:00 +29°C° 0 mm 3 mps 708 mmHg 25%
    21:00 +27°C° 0 mm 2 mps 708 mmHg 29%
    22:00 +25°C° 0 mm 2 mps 709 mmHg 32%
    23:00 +24°C° 0 mm 2 mps 708 mmHg 33%

    21 January, Sunday

    Time Temperature Precipitation Wind Pressure Humidity
    00:00 +23°C° 0 mm 1 mps 708 mmHg 34%
    01:00 +22°C° 0 mm 1 mps 707 mmHg 35%
    02:00 +21°C° 0 mm 1 mps 707 mmHg 34%
    03:00 +21°C° 0 mm 1 mps 707 mmHg 34%
    04:00 +20°C° 0 mm 1 mps 706 mmHg 34%
    05:00 +22°C° 0 mm 1 mps 707 mmHg 32%
    06:00 +24°C° 0 mm 1 mps 707 mmHg 30%
    07:00 +25°C° 0 mm 1 mps 708 mmHg 28%
    08:00 +28°C° 0 mm 2 mps 708 mmHg 23%
    09:00 +31°C° 0 mm 2 mps 708 mmHg 18%
    10:00 +35°C° 0 mm 3 mps 709 mmHg 14%
    11:00 +36°C° 0 mm 3 mps 708 mmHg 13%
    12:00 +38°C° 0 mm 3 mps 707 mmHg 11%
    13:00 +39°C° 0 mm 3 mps 707 mmHg 10%
    14:00 +39°C° 0 mm 3 mps 706 mmHg 10%
    15:00 +39°C° 0 mm 3 mps 706 mmHg 10%
    16:00 +40°C° 0 mm 3 mps 705 mmHg 11%
    17:00 +37°C° 0 mm 3 mps 705 mmHg 15%
    18:00 +35°C° 0 mm 2 mps 705 mmHg 20%
    19:00 +31°C° 0 mm 2 mps 705 mmHg 25%
    20:00 +30°C° 0 mm 2 mps 705 mmHg 33%
    21:00 +28°C° 0 mm 2 mps 705 mmHg 41%
    22:00 +26°C° 0 mm 2 mps 705 mmHg 50%
    23:00 +25°C° 0 mm 2 mps 704 mmHg 55%

    22 January, Monday

    Time Temperature Precipitation Wind Pressure Humidity
    00:00 +24°C° 0 mm 2 mps 704 mmHg 61%
    01:00 +23°C° 0 mm 1 mps 703 mmHg 66%
    02:00 +23°C° 0 mm 1 mps 703 mmHg 66%
    03:00 +23°C° 0 mm 1 mps 703 mmHg 66%
    04:00 +23°C° 0 mm 1 mps 703 mmHg 66%
    05:00 +23°C° 0 mm 1 mps 704 mmHg 64%
    06:00 +24°C° 0 mm 1 mps 704 mmHg 61%
    07:00 +25°C° 0 mm 1 mps 704 mmHg 59%
    08:00 +28°C° 0 mm 2 mps 705 mmHg 47%
    09:00 +31°C° 0 mm 3 mps 705 mmHg 35%
    10:00 +36°C° 0 mm 4 mps 705 mmHg 24%
    11:00 +37°C° 0 mm 5 mps 704 mmHg 21%
    12:00 +39°C° 0 mm 5 mps 704 mmHg 19%
    13:00 +41°C° 0 mm 5 mps 704 mmHg 17%
    14:00 +40°C° 0 mm 5 mps 703 mmHg 19%
    15:00 +38°C° 0 mm 4 mps 703 mmHg 21%
    16:00 +38°C° 0 mm 4 mps 703 mmHg 22%
    17:00 +35°C° 0 mm 4 mps 703 mmHg 32%
    18:00 +32°C° 0 mm 4 mps 703 mmHg 43%
    19:00 +28°C° 0 mm 4 mps 704 mmHg 53%
    20:00 +26°C° 0 mm 4 mps 704 mmHg 60%
    21:00 +24°C° 0 mm 3 mps 704 mmHg 66%
    22:00 +22°C° 0 mm 3 mps 705 mmHg 73%
    23:00 +21°C° 0 mm 3 mps 704 mmHg 76%
    Show more